Zurück zum Katalog

SL-8 R/B

AktivLEO
NORAD 19910·ROCKET BODY·🇷🇺 Russia

Gestartet Mar 24, 1989 von Plesetsk Cosmodrome

Loading…

Nächste Überflüge (nächste 24 Stunden)

TLE

AktuellSource: Space-Track

Epoche: Sep 14, 2026, 17:51 UTC

1 19910U 89025J   26257.74434873 -.00000014  00000-0  73347-5 0  9991
2 19910  74.0096 353.9386 0131713 176.9613 350.4463 12.23444451673555

Verfolge SL-8 R/B in Echtzeit mit AllMySat

Download on the App Store